Date String (YYYY-MM-DD hh:mm:ss) UTC,Instrument flags,absolute air pressure of the measurement (hPa),sample flow rate (lpm),inlet stack bypass flow (lpm),air temperature of the measurement (°C),ambient temperature measured by the external sensor (°C),aerosol sample conditioner tube jacket temperature (°C),OPC LED temperature (°C),internal box temperature (°C),relative humidity of the measurement (%),span deviation,mass concentration of particles derived from Lorenz-Mie calculation of OPC scattering (μg/m³),mass concentration of particles derived from Lorenz-Mie calculation of OPC scattering (μg/m³),mass concentration of particles derived from Lorenz-Mie calculation of OPC scattering (μg/m³)
DateTimeUTC,F1_M11,P_M11,Q1_M11,Q2_M11,T1_M11,T2_M11,T3_M11,T4_M11,T5_M11,U1_M11,ZSPAN_M11,X0_M11,X2_M11,X1_M11
2024-06-15 21:00:00,SystemResetWarning,0823.8,5.00,000.00,028.7,027.0,000.0,037.1,030.2,023.2,0005.0,0022.02,0007.01,0005.76
2024-06-15 21:01:00,SystemResetWarning,0823.8,5.00,000.00,028.7,027.4,000.0,037.1,030.4,023.1,0004.9,0021.91,0006.96,0005.77
2024-06-15 21:02:00,SystemResetWarning,0823.8,5.00,000.00,028.8,027.7,000.0,037.1,030.6,022.3,0004.9,0022.40,0006.98,0005.77
2024-06-15 21:03:00,SystemResetWarning,0823.8,5.00,000.00,028.9,028.1,000.0,037.1,030.7,021.7,0004.9,0022.33,0006.97,0005.77
2024-06-15 21:04:00,SystemResetWarning,0823.8,5.00,000.00,029.0,028.3,000.0,037.1,030.9,021.9,0004.7,0022.63,0007.07,0005.77
2024-06-15 21:05:00,SystemResetWarning,0823.8,4.99,000.00,029.1,028.6,000.0,037.1,031.0,021.4,0004.3,0027.44,0007.19,0005.75
2024-06-15 21:06:00,SystemResetWarning,0823.8,5.00,000.00,029.2,028.8,000.0,037.2,031.1,019.4,0004.1,0029.37,0007.21,0005.73
2024-06-15 21:07:00,SystemResetWarning,0823.8,4.99,000.00,029.3,028.9,000.0,037.2,031.1,019.1,0004.1,0029.44,0007.16,0005.72
2024-06-15 21:08:00,SystemResetWarning,0823.8,4.99,000.00,029.2,027.4,000.0,037.3,030.4,018.9,0003.8,0029.11,0007.00,0005.68
2024-06-15 21:09:00,SystemResetWarning,0823.7,5.01,000.00,028.8,025.7,000.0,037.4,029.6,019.5,0003.5,0027.95,0006.94,0005.65
2024-06-15 21:10:00,SystemResetWarning,0823.7,5.01,000.00,028.6,026.1,000.0,037.3,029.7,020.2,0003.7,0027.62,0006.95,0005.64
2024-06-15 21:11:00,SystemResetWarning,0823.7,4.99,000.00,028.7,026.5,000.0,037.2,029.9,021.4,0003.6,0027.29,0006.97,0005.63
2024-06-15 21:12:00,SystemResetWarning,0823.7,4.99,000.00,028.7,027.0,000.0,037.2,030.2,020.3,0003.7,0027.33,0006.94,0005.61
2024-06-15 21:13:00,SystemResetWarning,0823.7,5.00,000.00,028.8,027.4,000.0,037.1,030.4,019.8,0000.9,0026.41,0006.93,0005.60
2024-06-15 21:14:00,SystemResetWarning,0823.8,5.00,000.00,028.9,027.8,000.0,037.1,030.6,019.8,0000.0,0025.91,0006.84,0005.59
2024-06-15 21:15:00,SystemResetWarning,0823.8,5.00,000.00,028.9,028.1,000.0,037.1,030.8,020.4,0001.2,0025.65,0006.74,0005.56
2024-06-15 21:16:00,SystemResetWarning,0823.8,5.00,000.00,029.0,028.3,000.0,037.1,030.9,019.3,0003.2,0021.41,0006.64,0005.54
2024-06-15 21:17:00,SystemResetWarning,0823.8,5.00,000.00,029.1,028.6,000.0,037.2,031.0,019.6,0001.6,0018.89,0006.52,0005.51
2024-06-15 21:18:00,SystemResetWarning,0823.8,5.00,000.00,029.2,028.8,000.0,037.2,031.1,018.8,0000.0,0017.47,0006.48,0005.49
2024-06-15 21:19:00,SystemResetWarning,0823.8,5.00,000.00,029.3,028.6,000.0,037.3,031.0,018.8,0000.0,0016.66,0006.48,0005.47
2024-06-15 21:20:00,SystemResetWarning,0823.7,4.99,000.00,029.1,026.7,000.0,037.3,030.1,019.5,0000.0,0017.82,0006.48,0005.44
2024-06-15 21:21:00,SystemResetWarning,0823.7,5.03,000.00,028.7,025.6,000.0,037.3,029.6,019.8,0000.0,0020.16,0006.52,0005.41
2024-06-15 21:22:00,SystemResetWarning,0823.7,4.99,000.00,028.6,026.1,000.0,037.3,029.7,018.4,0000.0,0021.91,0006.55,0005.39
2024-06-15 21:23:00,SystemResetWarning,0823.7,5.00,000.00,028.6,026.5,000.0,037.2,030.0,018.8,0000.0,0022.75,0006.57,0005.37
2024-06-15 21:24:00,SystemResetWarning,0823.7,5.01,000.00,028.7,027.0,000.0,037.1,030.2,018.3,0000.0,0022.46,0006.53,0005.34
2024-06-15 21:25:00,SystemResetWarning,0823.7,5.00,000.00,028.8,027.4,000.0,037.1,030.4,018.5,0000.0,0022.17,0006.50,0005.31
2024-06-15 21:26:00,SystemResetWarning,0823.7,5.00,000.00,028.8,027.8,000.0,037.1,030.6,018.8,0000.0,0021.93,0006.47,0005.29
2024-06-15 21:27:00,SystemResetWarning,0823.8,5.00,000.00,028.9,028.1,000.0,037.1,030.7,017.8,0000.0,0022.49,0006.44,0005.26
2024-06-15 21:28:00,SystemResetWarning,0823.8,5.00,000.00,029.0,028.4,000.0,037.1,030.9,017.6,0000.0,0022.34,0006.47,0005.25
2024-06-15 21:29:00,SystemResetWarning,0823.8,4.99,000.00,029.1,028.6,000.0,037.1,031.0,017.0,0000.0,0022.88,0006.54,0005.25
2024-06-15 21:30:00,SystemResetWarning,0823.8,4.99,000.00,029.2,028.8,000.0,037.2,031.1,017.2,0000.0,0022.79,0006.59,0005.24
2024-06-15 21:31:00,SystemResetWarning,0823.7,5.00,000.00,029.2,028.2,000.0,037.3,030.8,017.4,0000.0,0021.38,0006.58,0005.23
2024-06-15 21:32:00,SystemResetWarning,0823.6,5.01,000.00,028.9,026.0,000.0,037.3,029.8,016.9,0000.0,0019.64,0006.53,0005.22
2024-06-15 21:33:00,SystemResetWarning,0823.6,5.01,000.00,028.6,025.7,000.0,037.3,029.5,017.4,0000.0,0017.53,0006.43,0005.20
2024-06-15 21:34:00,SystemResetWarning,0823.5,5.00,000.00,028.6,026.3,000.0,037.2,029.8,016.2,0000.5,0016.32,0006.34,0005.17
2024-06-15 21:35:00,SystemResetWarning,0823.6,4.99,000.00,028.6,026.7,000.0,037.2,030.0,016.1,0000.0,0017.01,0006.29,0005.13
2024-06-15 21:36:00,SystemResetWarning,0823.6,5.00,000.00,028.7,027.2,000.0,037.1,030.3,015.7,0000.0,0018.24,0006.23,0005.10
2024-06-15 21:37:00,SystemResetWarning,0823.6,5.00,000.00,028.8,027.6,000.0,037.1,030.5,015.7,0000.0,0018.11,0006.19,0005.08
2024-06-15 21:38:00,SystemResetWarning,0823.6,5.00,000.00,028.9,027.9,000.0,037.1,030.6,016.0,0000.0,0017.77,0006.19,0005.07
2024-06-15 21:39:00,SystemResetWarning,0823.6,4.98,000.00,029.0,028.2,000.0,037.1,030.8,016.2,0000.0,0017.36,0006.12,0005.04
2024-06-15 21:40:00,SystemResetWarning,0823.7,5.00,000.00,029.1,028.4,000.0,037.1,030.9,016.2,0000.0,0017.27,0006.01,0005.00
2024-06-15 21:41:00,SystemResetWarning,0823.7,5.00,000.00,029.1,028.6,000.0,037.2,031.0,016.0,0000.0,0017.82,0005.95,0004.98
2024-06-15 21:42:00,SystemResetWarning,0823.7,4.99,000.00,029.2,028.4,000.0,037.2,030.9,016.8,0000.0,0017.93,0005.94,0004.97
2024-06-15 21:43:00,SystemResetWarning,0823.6,5.00,000.00,029.0,026.3,000.0,037.3,029.9,016.8,0000.0,0016.56,0005.88,0004.95
2024-06-15 21:44:00,SystemResetWarning,0823.5,5.02,000.00,028.6,025.4,000.0,037.3,029.4,016.8,0000.0,0016.37,0005.84,0004.93
2024-06-15 21:45:00,SystemResetWarning,0823.5,5.00,000.00,028.5,026.0,000.0,037.2,029.6,015.5,0000.0,0016.57,0005.82,0004.92
2024-06-15 21:46:00,SystemResetWarning,0823.6,5.00,000.00,028.6,026.5,000.0,037.1,029.9,016.1,0000.0,0015.59,0005.80,0004.90
2024-06-15 21:47:00,SystemResetWarning,0823.5,5.00,000.00,028.6,026.9,000.0,037.1,030.1,016.3,0000.0,0013.70,0005.79,0004.89
2024-06-15 21:48:00,SystemResetWarning,0823.5,5.01,000.00,028.7,027.4,000.0,037.0,030.3,016.5,0000.0,0013.28,0005.81,0004.86
2024-06-15 21:49:00,SystemResetWarning,0823.5,4.99,000.00,028.7,027.7,000.0,037.0,030.5,016.8,0000.0,0012.34,0005.78,0004.85
2024-06-15 21:50:00,SystemResetWarning,0823.6,5.00,000.00,028.8,028.1,000.0,037.0,030.6,017.4,0000.0,0012.09,0005.76,0004.85
2024-06-15 21:51:00,SystemResetWarning,0823.7,5.00,000.00,028.9,028.3,000.0,037.1,030.8,016.3,0000.0,0011.58,0005.74,0004.85
2024-06-15 21:52:00,SystemResetWarning,0823.7,5.00,000.00,029.0,028.6,000.0,037.1,030.9,016.3,0000.0,0011.07,0005.70,0004.85
2024-06-15 21:53:00,SystemResetWarning,0823.8,5.01,000.00,029.1,028.8,000.0,037.1,031.0,016.7,0000.0,0011.02,0005.66,0004.83
2024-06-15 21:54:00,SystemResetWarning,0823.8,4.98,000.00,029.1,028.0,000.0,037.2,030.6,016.8,0000.0,0011.73,0005.65,0004.81
2024-06-15 21:55:00,SystemResetWarning,0823.6,5.01,000.00,028.8,025.9,000.0,037.3,029.6,016.6,0000.0,0012.82,0005.64,0004.81
2024-06-15 21:56:00,SystemResetWarning,0823.7,5.01,000.00,028.5,025.6,000.0,037.2,029.4,017.3,0000.0,0013.12,0005.64,0004.81
2024-06-15 21:57:00,SystemResetWarning,0823.7,5.00,000.00,028.5,026.3,000.0,037.2,029.7,016.9,0000.0,0012.94,0005.65,0004.81
2024-06-15 21:58:00,SystemResetWarning,0823.7,5.00,000.00,028.5,026.7,000.0,037.1,030.0,017.1,0000.0,0014.13,0005.69,0004.81
2024-06-15 21:59:00,SystemResetWarning,0823.7,4.99,000.00,028.6,027.1,000.0,037.0,030.2,017.4,0000.0,0014.24,0005.65,0004.82
